Wetbulb
45.00 39.70 36.99 40.56 41.97 42.24 39.69 38.59 37.28 39.01 42.04 39.78 39.83 40.48 42.41 44.51 44.02 43.37 43.93 44.91 45.70 46.62 48.44 49.75 50.15 50.73 52.22 54.68 57.46 60.42 60.52 59.41 59.05 58.50 57.58 56.73 57.15 56.81 58.40 60.02 61.74 62.30 62.31 62.27
40.49 37.24 43.50 44.76 44.13 41.85 39.42 37.29 36.86 40.62 42.17 39.19 39.27 39.06 42.19 43.29 44.00 44.74 44.82 44.70 45.47 46.01 47.31 48.63 49.15 49.06 51.17 53.11 54.70 56.81 58.87 58.44 58.09 58.18 57.04 55.62 54.85 54.10 56.53 56.25 57.75 59.65 59.88 60.73
38.97 41.17 44.58 43.49 40.47 40.26 38.59 37.20 37.14 37.68 39.67 39.51 36.17 35.47 39.20 43.44 45.12 45.03 45.72 46.64 46.16 46.40 46.31 47.00 48.25 48.44 48.87 50.01 52.14 53.82 55.67 56.63 56.47 55.35 54.56 52.87 52.70 51.75 51.06 53.38 55.57 55.72 56.62 57.96
40.29 43.45 42.05 40.13 39.64 40.50 36.01 40.50 40.75 38.99 35.82 30.30 37.62 27.92 36.61 40.46 41.34 43.39 44.84 44.64 45.10 45.91 47.14 47.74 47.66 47.62 49.06 50.06 51.59 52.29 51.61 51.47 53.19 53.52 53.30 53.00 52.22 51.18 50.94 51.77 53.02 54.31 53.45 54.63
38.54 39.49 38.90 38.50 39.85 41.59 38.20 41.30 39.65 37.90 34.44 33.81 33.37 29.65 34.72 38.47 37.93 40.83 43.04 44.50 45.13 46.05 46.84 46.99 47.59 48.73 48.72 48.47 48.20 49.05 50.06 50.72 51.62 52.65 52.96 52.38 51.25 50.16 48.34 49.77 49.44 50.16 49.85 51.32
39.69 42.03 41.32 40.96 40.99 41.39 42.70 39.83 38.43 36.84 35.18 26.18 33.97 32.76 31.48 36.28 37.99 39.59 41.90 42.74 45.65 47.57 46.38 47.22 47.31 48.37 48.19 47.97 48.17 48.12 48.62 49.93 50.82 51.40 52.41 51.35 51.13 48.10 48.03 48.69 48.45 48.47 47.58 48.09
38.59 38.67 40.54 41.94 38.14 40.37 39.28 35.85 26.50 25.71 25.08 24.89 33.21 30.78 35.07 39.71 41.74 39.87 41.57 42.99 43.32 46.50 45.54 46.36 45.80 45.36 46.41 46.41 47.04 47.77 47.77 47.37 48.73 49.20 50.32 50.51 49.79 48.24 48.16 48.98 49.52 45.44 43.69 44.20
34.59 31.79 38.34 40.93 39.77 36.62 36.41 35.82 27.84 21.79 23.46 25.58 30.01 27.90 33.80 40.77 41.46 42.03 42.15 43.39 44.00 42.96 44.85 44.97 45.73 46.08 44.96 45.76 46.11 46.45 46.55 46.51 47.48 48.02 48.65 49.36 49.82 49.57 50.21 50.06 49.59 48.20 46.42 46.51
34.61 35.23 39.51 40.83 40.60 41.02 36.33 33.09 38.29 30.40 22.73 23.64 29.88 34.84 40.28 41.38 40.49 41.52 42.87 42.83 42.68 44.14 45.04 45.49 45.64 46.20 45.76 44.48 44.83 45.45 45.53 46.15 46.69 47.35 47.85 48.18 48.70 49.09 49.50 49.30 49.24 48.22 45.65 45.99
38.42 31.93 37.25 38.09 39.69 39.70 37.73 39.78 30.98 30.66 20.19 18.81 27.40 28.98 32.88 37.43 40.03 41.62 40.48 41.77 43.62 44.78 45.87 45.66 45.74 45.86 45.03 44.38 44.81 45.19 45.63 45.14 45.78 46.40 46.93 47.56 47.82 47.73 48.38 48.53 47.34 46.70 45.57 43.71
39.80 36.36 32.24 36.10 34.63 34.78 34.30 32.85 34.40 35.08 30.68 23.82 21.56 28.12 38.14 38.63 40.87 41.11 40.97 43.16 43.66 43.93 44.55 44.73 44.77 44.34 44.18 43.84 43.98 44.16 44.57 44.78 44.82 45.48 45.77 45.94 45.89 46.48 47.52 47.64 46.81 46.28 44.57 42.09
39.94 37.12 29.05 32.85 37.43 38.24 37.02 35.68 36.01 27.29 26.43 27.73 27.26 31.02 41.33 40.29 40.15 40.97 41.04 43.15 44.66 44.19 44.69 44.09 43.94 43.56 42.45 42.85 43.18 43.61 44.03 44.15 44.52 45.00 45.23 45.09 45.25 45.70 45.72 46.00 45.40 43.58 41.50 37.11
39.74 34.00 25.14 30.16 34.46 35.92 33.12 36.10 37.23 36.10 30.17 28.79 23.76 29.84 40.55 39.47 41.17 42.61 41.52 43.11 43.93 45.16 44.15 44.99 43.61 42.72 42.74 42.55 42.76 43.11 43.54 43.64 44.23 44.51 44.19 44.04 43.72 44.23 44.11 43.76 43.32 40.56 38.27 34.77
43.08 36.89 32.10 28.41 33.01 37.67 32.81 35.89 38.08 36.70 30.32 30.18 30.69 33.88 38.90 41.09 41.42 43.32 43.38 42.82 43.15 43.94 44.73 44.02 43.82 44.11 43.72 43.39 43.21 42.94 43.16 43.66 43.58 43.91 43.41 42.50 42.57 43.86 43.84 43.04 41.70 39.04 36.57 34.02
40.14 32.41 34.79 35.48 36.56 37.07 35.82 35.88 36.90 35.92 36.23 32.14 34.03 34.36 38.94 41.74 42.10 42.45 43.47 44.22 44.19 44.63 45.02 44.73 43.94 44.20 44.74 44.73 43.44 42.97 42.86 43.02 43.30 43.28 42.93 43.51 42.11 42.72 42.33 39.99 38.45 35.90 33.92 33.52
38.77 31.41 32.36 26.96 33.46 33.08 29.77 32.04 33.14 35.10 36.17 36.59 37.25 36.12 42.53 43.88 44.66 44.05 44.55 44.70 44.62 44.52 45.51 45.50 45.44 44.78 44.79 44.68 44.53 43.64 42.52 41.93 42.36 42.81 42.50 43.24 39.75 38.09 37.37 36.63 35.88 33.80 32.39 31.25
35.57 32.62 29.92 21.12 28.41 28.66 27.26 30.03 32.04 33.95 35.85 36.24 33.04 38.40 42.70 42.01 43.09 43.78 44.32 44.76 45.47 46.19 46.77 45.58 45.15 45.14 44.85 44.68 44.65 43.20 42.52 41.14 39.08 37.84 35.74 35.55 35.31 34.73 35.30 34.82 33.35 31.63 30.56 29.05
30.11 30.87 27.00 21.19 21.47 17.15 29.70 34.67 36.01 35.37 36.87 39.33 39.90 41.04 42.09 42.79 43.89 44.77 44.52 43.73 44.69 45.68 46.01 45.96 44.77 43.34 43.13 42.44 42.05 41.77 38.19 37.39 36.35 34.91 32.87 31.78 33.17 33.44 32.05 31.94 31.39 29.68 28.97 28.39
35.51 30.18 18.15 18.78 17.24 23.64 27.63 30.89 30.20 29.28 31.33 38.60 36.46 37.84 38.10 38.78 38.26 40.17 40.01 41.32 41.97 42.50 42.11 41.46 40.71 40.51 40.10 40.15 39.60 35.61 34.73 34.36 34.58 34.55 33.73 31.78 32.00 30.99 30.40 29.93 28.52 26.86 27.14 26.43
32.82 33.47 27.53 14.79 11.94 7.02 26.18 31.37 35.01 35.38 25.17 34.51 36.90 36.06 36.06 36.78 31.64 36.39 39.91 40.25 40.47 41.59 40.37 37.94 37.02 37.80 37.65 35.31 33.64 31.41 31.99 31.84 32.20 32.87 33.33 32.94 31.38 30.42 29.40 29.03 27.78 25.62 24.75 26.60
24.79 21.95 23.47 22.90 21.54 23.94 30.04 33.49 34.32 22.54 24.10 30.63 32.94 34.79 34.30 33.98 36.39 38.93 40.45 39.42 39.11 37.58 37.37 36.93 34.97 34.98 34.57 31.79 30.17 30.09 31.16 31.05 31.62 30.06 29.38 28.82 28.97 27.36 27.05 26.16 24.80 24.94 25.09 27.62
20.29 17.24 19.02 20.14 21.03 18.18 34.16 33.29 28.93 34.40 35.99 35.33 34.85 36.01 35.27 36.40 37.33 38.35 39.08 36.72 36.12 35.87 34.52 31.55 31.40 31.13 31.20 28.50 28.17 28.42 28.38 28.84 27.32 27.00 27.02 25.98 24.08 27.48 25.77 24.39 22.07 28.29 27.55 26.29
18.91 23.50 16.36 22.35 21.18 32.14 34.02 32.17 35.74 38.37 34.89 33.73 34.83 35.46 36.41 34.98 35.72 38.13 38.35 38.67 37.97 37.24 35.30 32.26 26.95 26.73 27.86 25.70 25.30 25.04 25.58 25.13 23.92 23.06 22.56 22.61 24.29 24.04 23.68 23.45 23.40 26.30 26.71 25.34
24.19 28.74 23.01 23.16 27.10 29.20 30.97 33.20 33.72 35.02 33.74 36.45 37.06 36.43 34.72 34.74 35.00 35.28 36.04 36.48 36.58 33.91 32.59 28.96 28.35 27.71 25.73 25.88 25.21 23.16 23.24 23.15 21.03 20.65 20.58 20.40 22.27 23.47 22.75 25.34 24.82 24.06 21.52 23.46
23.68 25.52 22.69 23.13 26.83 28.49 30.30 31.53 32.93 33.00 33.73 33.20 33.08 33.94 33.43 32.35 32.96 31.96 32.83 32.45 32.36 30.36 26.85 26.59 26.22 26.15 24.08 24.48 23.49 23.53 24.09 23.82 22.40 24.42 23.33 21.28 21.44 21.76 21.57 21.92 22.67 24.10 23.41 25.39
26.38 25.02 22.60 21.65 27.11 28.01 29.32 30.60 31.21 31.54 30.97 31.84 31.29 32.17 33.57 32.17 31.52 29.85 29.84 28.71 27.55 26.37 24.12 23.79 23.02 21.92 21.05 21.10 18.56 21.55 24.99 26.51 26.03 25.48 26.61 27.00 26.83 25.92 25.10 24.81 26.50 31.37 30.89 31.72
MSLP
1013.47 1013.74 1013.47 1013.27 1013.06 1012.98 1013.14 1013.52 1013.47 1013.22 1013.84 1014.00 1014.10 1013.66 1012.64 1011.94 1011.47 1011.50 1011.48 1011.20 1011.08 1011.03 1010.51 1010.66 1010.98 1011.59 1012.52 1013.37 1013.89 1014.26 1014.97 1015.67 1016.52 1017.23 1017.82 1018.19 1018.42 1018.59 1018.92 1019.11 1019.35 1019.61 1020.25 1020.96
1014.09 1013.82 1013.33 1013.24 1013.29 1013.21 1013.57 1013.84 1013.98 1013.69 1014.23 1014.42 1014.01 1013.50 1012.29 1011.61 1010.78 1010.34 1010.37 1010.36 1010.17 1010.02 1009.82 1009.93 1010.26 1010.86 1011.63 1012.42 1013.15 1013.77 1014.26 1015.02 1015.78 1016.54 1017.01 1017.45 1017.77 1018.15 1018.45 1018.93 1019.28 1019.34 1019.76 1020.39
1013.83 1013.56 1013.42 1013.66 1014.02 1013.82 1014.19 1014.18 1014.25 1014.48 1014.49 1014.48 1014.21 1013.52 1011.58 1010.14 1009.52 1009.42 1009.39 1009.29 1009.50 1009.39 1009.25 1009.34 1009.59 1010.13 1010.90 1011.75 1012.40 1013.01 1013.47 1014.12 1014.92 1015.66 1016.42 1016.96 1017.56 1018.12 1018.67 1018.80 1019.13 1019.33 1019.69 1019.90
1013.94 1013.53 1013.89 1014.08 1014.47 1014.46 1014.73 1014.57 1014.38 1015.05 1015.59 1015.51 1014.98 1013.69 1011.56 1010.59 1009.30 1009.01 1008.72 1008.81 1008.53 1008.59 1008.41 1008.71 1009.09 1009.66 1010.11 1010.68 1011.44 1012.19 1013.02 1013.74 1014.38 1015.01 1015.60 1016.04 1016.32 1017.04 1017.31 1017.80 1018.61 1019.18 1019.62 1019.70
1013.79 1013.67 1014.25 1014.39 1014.51 1014.60 1015.15 1014.98 1014.97 1015.72 1016.23 1016.13 1015.47 1014.95 1011.11 1010.00 1009.41 1008.55 1008.03 1007.87 1007.80 1007.77 1007.87 1008.10 1008.50 1008.82 1009.57 1010.29 1011.00 1011.77 1012.39 1013.05 1013.67 1014.32 1014.72 1015.26 1015.86 1016.45 1016.91 1017.67 1018.30 1018.84 1019.36 1019.49
1014.16 1014.34 1014.77 1014.61 1015.09 1014.87 1015.48 1015.71 1016.04 1016.63 1017.01 1016.48 1015.30 1014.40 1010.71 1009.73 1008.58 1007.85 1007.46 1007.52 1007.69 1007.92 1008.09 1008.32 1008.54 1009.03 1009.62 1010.21 1010.97 1011.67 1012.23 1012.63 1013.07 1013.57 1014.10 1014.63 1015.29 1016.02 1016.66 1017.08 1017.68 1018.33 1018.95 1019.34
1014.27 1014.48 1014.93 1014.94 1015.58 1015.80 1015.65 1016.26 1017.15 1017.82 1017.98 1016.37 1014.87 1013.92 1010.21 1008.77 1007.81 1007.69 1007.76 1007.86 1007.98 1008.22 1008.44 1008.77 1009.06 1009.53 1009.83 1010.49 1011.08 1011.60 1012.05 1012.46 1012.85 1013.36 1013.93 1014.38 1014.99 1015.68 1016.16 1016.51 1016.98 1017.57 1018.15 1018.59
1013.89 1014.31 1014.38 1014.70 1014.63 1015.26 1015.90 1015.98 1016.48 1017.21 1017.87 1016.92 1015.58 1012.91 1009.81 1008.41 1007.91 1007.71 1007.76 1007.94 1008.02 1008.35 1008.61 1008.75 1009.14 1009.47 1009.92 1010.55 1011.01 1011.53 1012.07 1012.49 1012.84 1013.24 1013.72 1014.13 1014.56 1014.97 1015.24 1015.58 1015.97 1016.42 1016.79 1017.46
1013.59 1013.46 1013.50 1013.96 1014.27 1014.57 1015.68 1015.84 1015.72 1016.75 1017.59 1017.53 1015.20 1011.82 1009.37 1008.46 1008.35 1008.09 1008.10 1008.40 1008.85 1008.88 1008.91 1009.17 1009.29 1009.42 1009.86 1010.53 1011.01 1011.27 1011.92 1012.29 1012.57 1012.86 1013.16 1013.47 1013.86 1014.16 1014.44 1014.74 1015.17 1015.56 1016.18 1016.75
1013.17 1013.75 1014.04 1014.51 1014.72 1014.73 1015.01 1015.23 1016.06 1016.71 1017.88 1017.58 1014.54 1012.51 1009.60 1008.69 1008.70 1008.47 1008.75 1009.03 1009.21 1009.51 1009.42 1009.50 1009.56 1009.64 1010.24 1010.67 1011.09 1011.39 1011.71 1012.05 1012.33 1012.47 1012.76 1013.02 1013.28 1013.60 1013.90 1014.35 1014.70 1015.22 1015.68 1016.23
1013.60 1014.24 1015.28 1015.26 1014.99 1014.58 1015.08 1015.15 1015.66 1016.14 1016.70 1016.14 1014.94 1011.64 1008.97 1008.78 1008.94 1009.03 1009.18 1009.33 1009.50 1009.70 1009.96 1009.95 1010.08 1010.30 1010.64 1011.10 1011.45 1011.58 1011.70 1011.91 1012.19 1012.36 1012.38 1012.78 1012.86 1013.18 1013.35 1013.50 1013.79 1014.27 1014.98 1015.45
1013.84 1014.61 1015.27 1015.10 1014.63 1014.37 1014.35 1014.48 1015.41 1015.95 1016.35 1016.09 1015.03 1011.12 1008.89 1008.69 1009.05 1009.21 1009.27 1009.38 1009.53 1009.62 1009.83 1009.93 1010.03 1010.32 1010.84 1011.08 1011.55 1011.70 1011.57 1011.58 1011.67 1011.84 1012.04 1012.27 1012.52 1012.80 1013.00 1013.15 1013.50 1013.86 1014.35 1015.05
1015.19 1015.60 1016.29 1015.93 1015.43 1015.31 1015.16 1014.90 1015.07 1015.49 1015.83 1015.30 1014.77 1011.30 1009.88 1009.14 1009.47 1009.47 1009.63 1009.34 1009.34 1009.31 1009.41 1009.54 1009.87 1010.09 1010.21 1010.43 1010.91 1011.12 1011.24 1011.30 1011.59 1011.76 1011.87 1012.03 1012.23 1012.45 1012.52 1012.49 1012.91 1013.44 1013.98 1014.67
1016.30 1017.00 1016.89 1016.39 1015.96 1016.28 1016.32 1015.92 1015.91 1015.83 1015.87 1014.74 1014.19 1011.94 1008.82 1009.55 1010.17 1009.96 1009.68 1009.29 1009.21 1009.35 1009.35 1009.41 1009.43 1009.46 1009.43 1009.70 1009.99 1010.34 1010.48 1010.59 1010.91 1011.17 1011.45 1011.56 1011.46 1011.76 1011.88 1012.15 1012.57 1013.02 1013.63 1014.39
1017.89 1018.38 1018.46 1017.78 1017.54 1017.08 1017.41 1017.29 1016.91 1016.71 1016.31 1015.38 1013.25 1013.14 1010.33 1009.54 1010.15 1009.90 1009.42 1009.23 1009.22 1009.22 1009.22 1008.98 1009.03 1009.13 1008.94 1008.93 1009.02 1009.19 1009.43 1009.84 1010.12 1010.52 1010.75 1010.69 1010.81 1010.98 1011.14 1011.65 1012.19 1012.76 1013.22 1013.79
1018.86 1019.17 1019.45 1018.97 1018.65 1018.36 1017.63 1016.73 1016.54 1016.24 1015.47 1014.88 1013.92 1012.18 1011.38 1010.00 1010.02 1009.70 1009.60 1009.61 1009.17 1009.10 1009.00 1008.77 1008.61 1008.67 1008.63 1008.60 1008.67 1008.73 1008.90 1009.13 1009.58 1009.92 1010.04 1010.36 1010.61 1010.83 1010.93 1011.27 1011.85 1012.54 1013.19 1013.64
1019.38 1019.84 1020.28 1019.69 1019.17 1018.72 1017.57 1015.59 1015.56 1014.60 1014.26 1014.18 1013.46 1012.22 1011.40 1011.15 1010.18 1009.73 1010.01 1010.44 1009.51 1009.15 1008.77 1008.65 1008.48 1008.46 1008.31 1008.37 1008.64 1008.94 1008.83 1008.92 1009.23 1009.35 1009.54 1009.95 1010.36 1010.62 1010.84 1011.09 1011.73 1012.37 1013.01 1013.54
1019.59 1020.31 1020.78 1020.38 1020.30 1018.84 1015.74 1014.71 1014.67 1014.23 1013.70 1013.34 1013.05 1012.52 1011.94 1011.58 1011.02 1010.18 1010.51 1010.64 1010.36 1009.70 1009.14 1008.98 1008.99 1008.99 1009.08 1008.99 1008.88 1008.90 1009.19 1009.47 1009.66 1009.51 1009.48 1009.75 1010.14 1010.31 1010.67 1011.09 1011.51 1012.15 1012.71 1013.17
1019.44 1020.19 1020.70 1020.85 1019.86 1018.14 1016.55 1015.02 1014.62 1014.08 1013.06 1013.29 1012.98 1013.17 1013.18 1012.83 1012.06 1011.00 1011.70 1011.83 1011.75 1011.20 1010.70 1010.49 1010.44 1010.27 1009.91 1009.85 1009.67 1009.75 1009.79 1009.85 1009.87 1009.79 1009.74 1009.79 1010.06 1010.28 1010.56 1010.89 1011.46 1012.12 1012.73 1013.29
1018.99 1019.38 1020.38 1020.37 1019.40 1017.87 1015.26 1013.96 1013.54 1013.90 1014.08 1014.33 1014.53 1014.41 1014.42 1013.95 1013.44 1012.39 1012.12 1012.11 1012.07 1011.84 1011.56 1011.34 1011.07 1010.83 1010.48 1010.65 1010.71 1010.56 1010.52 1010.44 1010.21 1009.98 1009.88 1009.89 1009.97 1010.22 1010.43 1010.66 1011.16 1011.75 1012.40 1013.02
1019.47 1019.65 1019.32 1019.22 1018.47 1016.83 1015.01 1013.65 1014.13 1014.85 1015.34 1015.35 1015.33 1015.31 1015.21 1014.82 1014.50 1013.27 1012.72 1012.53 1012.49 1012.17 1011.75 1011.80 1011.69 1011.60 1011.38 1011.42 1011.38 1011.19 1010.95 1010.58 1010.28 1010.05 1009.75 1009.89 1010.08 1010.46 1010.66 1010.94 1011.31 1011.77 1012.20 1012.76
1018.65 1018.85 1018.66 1018.50 1017.68 1016.06 1014.34 1013.89 1014.33 1014.95 1015.19 1015.19 1015.20 1014.87 1014.82 1014.58 1013.96 1013.52 1012.70 1012.68 1012.64 1012.12 1011.58 1011.55 1011.91 1011.86 1011.89 1011.85 1011.49 1011.64 1011.31 1010.82 1010.45 1010.46 1010.47 1010.58 1010.49 1010.38 1010.83 1011.52 1011.78 1011.99 1012.37 1012.80
1018.27 1017.33 1017.24 1016.74 1015.77 1014.53 1014.24 1014.31 1014.28 1014.43 1014.64 1014.84 1014.98 1015.00 1014.95 1014.89 1014.45 1014.06 1013.48 1012.48 1011.83 1011.78 1011.77 1012.02 1011.77 1012.12 1012.50 1012.32 1012.06 1011.64 1011.37 1011.20 1011.08 1010.77 1010.95 1011.08 1011.14 1011.14 1010.89 1011.37 1011.97 1012.35 1012.80 1013.09
1017.13 1016.61 1016.66 1016.62 1015.24 1014.93 1014.92 1014.44 1014.12 1014.22 1014.42 1014.46 1014.59 1014.64 1014.62 1014.65 1014.08 1013.66 1013.30 1012.70 1012.36 1012.09 1012.01 1012.27 1012.40 1012.67 1012.32 1012.28 1012.42 1012.61 1011.92 1010.90 1010.81 1011.14 1011.64 1011.47 1011.32 1011.46 1011.84 1011.79 1011.95 1012.06 1012.01 1013.26
1017.24 1016.73 1016.33 1015.88 1015.42 1015.29 1014.83 1014.74 1014.37 1014.34 1014.28 1014.17 1014.17 1014.20 1014.13 1014.11 1013.60 1013.74 1013.34 1013.10 1012.85 1012.58 1012.58 1012.66 1012.76 1012.82 1013.19 1012.65 1012.25 1013.02 1011.95 1011.49 1011.34 1010.66 1011.55 1012.05 1012.03 1012.19 1012.54 1012.31 1012.11 1012.40 1012.53 1012.53
1016.55 1016.15 1016.52 1015.50 1015.64 1015.60 1014.96 1014.71 1014.59 1014.69 1014.65 1014.41 1014.25 1013.65 1013.65 1014.13 1013.85 1013.71 1013.50 1013.37 1013.30 1013.20 1013.28 1013.35 1013.33 1013.39 1013.16 1013.46 1013.01 1012.61 1011.77 1012.50 1011.66 1011.08 1011.44 1011.89 1011.91 1012.61 1012.60 1012.98 1013.27 1012.84 1012.16 1012.31
Wind_Speed
1 2 6 9 8 8 4 6 8 4 3 2 7 11 10 10 9 9 10 11 11 12 9 10 12 13 11 10 10 14 13 12 10 7 7 4 6 3 3 3 6 8 7 9
3 5 9 1 4 1 2 5 8 8 6 1 7 12 12 9 12 12 11 11 11 9 11 10 11 12 14 14 10 10 13 13 12 9 7 5 5 3 4 3 4 6 9 11
6 2 0 4 1 2 5 6 7 7 2 6 4 9 10 11 17 11 11 13 9 11 10 8 10 12 12 12 13 12 13 14 13 11 6 4 3 3 4 6 6 5 7 9
7 5 5 4 4 6 5 3 8 4 6 4 5 8 8 10 12 8 10 10 11 11 9 9 8 9 14 17 14 12 10 9 12 13 11 14 11 9 6 7 6 7 8 9
3 6 5 5 5 6 2 3 5 2 2 5 5 4 9 8 8 10 9 10 10 9 8 8 10 9 9 9 10 9 10 10 11 13 13 11 10 6 4 6 9 9 8 8
1 0 3 2 4 1 8 4 3 1 1 6 10 9 5 8 4 3 3 1 3 5 5 6 5 3 4 7 8 8 10 11 12 13 14 13 12 7 6 7 8 7 6 6
5 7 3 2 5 5 3 5 1 3 0 9 2 4 10 9 9 2 4 7 7 3 2 3 5 4 4 7 7 7 9 8 9 9 9 10 8 9 8 8 8 8 6 5
8 4 12 7 8 9 9 7 7 8 5 5 5 11 8 4 2 4 2 6 8 5 5 7 6 8 8 7 8 7 7 6 8 8 8 8 8 7 8 8 8 8 8 8
6 7 1 6 2 6 6 8 5 4 3 3 6 11 14 8 6 7 9 7 8 9 5 7 8 5 7 7 7 8 8 7 8 9 8 9 8 9 9 7 9 8 7 8
4 4 2 4 3 5 4 1 2 2 4 5 8 8 14 6 9 9 3 5 8 8 8 8 5 2 3 5 5 6 7 8 7 8 7 7 8 8 7 6 7 8 9 8
5 4 0 4 6 9 3 4 4 4 5 5 3 9 6 4 7 7 4 5 7 6 6 5 6 5 4 1 3 5 6 7 7 7 7 7 7 7 7 7 8 7 8 9
5 2 4 7 3 2 5 7 9 5 4 4 4 18 5 5 4 3 3 5 2 5 4 1 2 2 3 6 5 7 7 8 8 8 7 7 7 7 8 7 7 7 8 7
2 1 3 7 2 4 3 5 6 9 2 14 5 15 7 3 9 8 5 7 4 4 5 3 4 6 7 8 7 8 7 7 7 7 7 7 8 8 8 8 7 7 8 8
6 1 5 5 4 7 4 6 8 7 5 11 13 22 31 19 15 15 13 9 8 8 7 6 5 6 6 8 8 8 9 9 8 8 8 8 9 11 9 7 7 8 8 9
5 4 4 14 14 12 2 6 10 12 14 16 21 17 29 22 15 10 8 10 9 8 9 9 7 7 8 8 8 7 8 8 8 9 9 13 10 9 8 8 8 7 9 9
3 2 1 6 6 7 13 15 13 14 18 22 22 23 17 21 18 17 15 12 13 9 10 9 9 8 8 9 8 8 9 8 8 10 12 9 7 7 8 7 7 7 7 7
6 4 3 7 3 3 8 21 17 16 17 13 20 24 21 19 23 22 15 14 22 21 19 10 9 8 6 6 6 7 7 5 8 8 7 7 6 6 7 7 7 8 8 7
5 5 3 6 5 9 8 4 7 13 12 12 13 15 19 19 18 18 8 11 16 17 15 11 7 7 6 6 6 5 6 6 6 7 4 4 5 6 6 7 8 6 6 9
11 5 2 4 8 12 19 19 13 13 23 9 4 7 7 12 9 12 12 13 14 12 7 5 6 6 6 7 6 6 7 6 6 7 6 4 5 5 6 7 6 3 5 4
15 13 8 3 6 8 8 6 7 12 16 7 7 7 8 10 7 9 18 13 13 14 8 9 9 7 7 6 7 6 7 6 7 6 6 6 6 6 7 7 7 4 4 4
5 5 15 13 13 7 10 18 5 5 7 2 1 4 7 6 5 14 13 11 7 6 8 7 7 7 6 6 6 6 6 5 5 5 3 3 3 4 3 4 3 5 5 7
7 7 6 7 9 16 7 5 4 2 5 6 5 13 9 10 13 11 14 11 10 9 7 3 5 6 6 5 3 6 6 4 3 2 3 2 3 3 4 5 3 6 7 7
7 9 6 7 7 3 2 0 2 4 6 4 4 8 8 9 10 13 15 15 12 8 6 4 3 6 6 6 5 3 3 2 2 4 3 2 3 3 5 6 5 5 5 5
5 4 4 1 12 16 10 12 8 2 3 5 7 8 7 11 12 13 13 14 11 6 6 2 3 5 3 2 2 5 3 2 5 5 3 2 4 4 3 3 3 5 5 4
5 4 1 5 7 6 9 8 6 6 8 9 7 7 9 7 14 7 9 11 11 8 4 2 3 3 4 3 4 5 2 2 2 6 4 2 3 3 2 2 3 2 2 5
7 15 9 13 8 9 11 7 10 15 8 10 10 16 15 7 11 5 10 6 6 6 3 3 2 1 2 2 2 3 6 2 1 5 3 2 3 2 2 3 2 6 9 9
Wind_Direction
159 206 207 212 225 261 52 321 335 346 127 171 234 266 258 265 264 251 241 225 229 238 233 206 192 189 185 192 197 189 184 181 177 186 188 192 195 174 176 186 181 161 171 180
116 232 245 231 29 185 166 271 281 283 113 211 274 273 266 255 256 230 235 245 241 243 227 222 199 181 180 194 192 191 191 183 186 190 192 186 172 187 189 160 193 172 173 184
211 157 94 132 161 207 240 240 262 264 168 219 287 270 258 249 238 253 246 248 249 242 241 235 204 184 176 185 191 197 196 189 186 184 175 169 140 93 162 200 196 196 187 183
226 207 158 182 222 182 257 343 240 317 346 250 52 288 294 306 296 224 236 239 239 239 241 232 228 191 182 194 190 189 187 184 189 186 187 193 196 194 194 190 200 199 196 191
213 168 172 182 179 188 205 35 79 79 272 303 195 267 266 229 261 260 247 251 250 234 231 235 214 191 193 176 182 181 180 187 187 192 195 193 201 195 155 173 185 191 193 191
53 89 273 190 58 86 137 95 100 147 198 276 180 200 229 228 237 307 353 20 64 67 38 8 54 75 167 169 171 175 182 196 191 192 199 198 202 181 183 177 180 186 186 186
188 188 137 132 86 12 184 144 253 308 37 240 101 254 229 291 299 276 287 298 308 108 112 221 213 240 221 177 180 178 183 198 190 191 195 202 189 187 206 187 185 170 169 183
201 219 155 190 191 170 204 184 172 201 193 262 358 245 260 204 11 285 264 276 300 269 242 233 233 213 209 199 175 177 195 199 189 190 196 195 200 201 210 191 191 195 195 193
205 225 90 146 145 137 181 218 263 334 54 25 228 272 289 248 230 267 290 313 317 317 332 276 249 227 188 182 189 180 190 204 205 194 192 200 201 206 218 211 191 194 180 185
316 272 351 92 80 283 190 240 158 250 182 224 257 266 246 314 293 276 355 26 354 337 348 337 296 242 127 169 190 188 191 201 210 202 201 204 203 209 209 206 200 183 188 173
184 224 26 120 198 177 156 212 220 168 195 175 253 257 195 205 107 84 48 7 312 328 346 349 20 52 88 102 190 205 200 197 208 212 206 211 206 214 210 207 196 197 177 172
205 330 242 203 47 1 225 219 199 151 240 218 198 270 82 323 345 326 296 302 350 312 315 72 136 142 201 198 219 226 213 208 207 203 207 211 212 214 215 210 202 182 171 167
353 187 57 326 251 49 244 224 231 230 78 243 182 258 107 29 343 332 324 297 259 245 241 256 211 209 212 215 212 214 218 219 217 208 208 211 218 216 217 206 193 178 166 166
48 238 209 216 114 67 342 340 324 274 245 267 246 270 281 281 290 294 293 287 265 265 274 247 266 248 232 223 210 212 218 212 207 201 208 217 215 217 211 202 195 179 170 171
154 220 236 268 288 319 313 273 277 278 280 248 263 249 271 284 286 294 285 309 303 299 293 285 265 266 253 247 233 223 217 208 198 200 207 223 215 210 197 198 193 177 175 181
155 228 171 263 244 260 284 274 257 262 254 262 270 276 272 293 292 291 291 298 301 312 304 278 280 263 260 259 249 230 223 215 194 205 220 228 215 206 204 192 183 173 178 173
167 157 161 260 71 357 260 241 240 246 249 249 259 264 276 279 288 288 302 321 300 297 291 286 279 276 261 259 283 270 259 228 208 214 219 212 205 201 200 181 169 172 175 163
169 202 146 273 52 264 238 340 247 243 257 243 254 262 262 268 290 295 306 318 319 314 313 315 343 2 2 351 349 342 345 320 278 249 223 198 198 200 179 171 180 167 163 179
199 166 236 211 241 282 303 283 281 272 279 259 301 359 346 335 314 296 22 353 326 321 324 334 350 337 330 329 347 348 318 298 278 258 241 216 201 191 176 180 169 148 147 162
217 217 207 215 201 220 244 246 248 258 261 8 31 14 338 344 328 298 336 341 333 326 332 334 332 323 337 357 356 329 300 288 272 261 248 222 197 191 190 176 165 145 141 147
171 214 224 232 239 256 254 275 279 222 274 228 318 308 302 291 269 284 304 304 294 280 310 328 340 325 330 349 338 312 304 279 282 273 234 190 170 177 166 141 122 134 131 137
179 170 193 221 239 256 226 321 226 123 211 229 277 289 272 272 284 280 285 277 278 293 303 330 322 317 322 336 347 316 303 308 329 22 45 67 114 124 115 122 104 129 135 134
243 209 200 183 210 230 217 270 326 182 238 268 221 257 246 260 267 271 273 286 294 289 300 327 338 315 316 337 323 291 266 333 32 68 77 82 75 72 109 124 124 122 125 138
276 268 238 253 253 261 292 316 316 81 257 247 251 261 261 266 278 283 290 291 291 288 291 282 294 295 290 325 308 304 280 128 113 93 48 60 81 77 75 91 110 134 127 139
220 344 259 277 304 304 283 274 288 322 318 313 291 248 259 268 280 255 280 289 292 295 297 273 280 253 264 331 14 311 320 59 93 110 109 60 66 64 45 57 131 124 132 146
224 250 250 264 270 275 273 278 300 300 285 282 295 302 292 239 276 287 282 273 277 289 279 281 266 297 358 346 12 351 5 329 107 102 102 117 107 115 98 84 39 124 142 148